Total_Precipitation_Accumulation
0.39 0.38 0.34 0.31 0.30 0.30 0.32 0.36 0.41 0.39 0.30 0.24 0.23 0.23 0.23 0.25 0.27 0.27 0.27 0.30 0.29 0.27 0.25 0.22 0.18 0.15 0.13 0.12 0.12 0.13 0.14 0.15 0.17 0.18 0.19 0.20 0.22 0.25
0.37 0.38 0.38 0.36 0.36 0.37 0.40 0.45 0.50 0.56 0.52 0.39 0.33 0.33 0.35 0.35 0.37 0.34 0.32 0.32 0.29 0.26 0.24 0.20 0.15 0.12 0.10 0.10 0.12 0.13 0.16 0.18 0.20 0.24 0.28 0.32 0.35 0.37
0.31 0.34 0.37 0.37 0.39 0.41 0.45 0.51 0.57 0.62 0.65 0.55 0.46 0.43 0.42 0.38 0.34 0.28 0.23 0.20 0.17 0.17 0.15 0.12 0.10 0.09 0.10 0.11 0.12 0.14 0.16 0.17 0.21 0.24 0.29 0.33 0.36 0.38
0.29 0.33 0.36 0.37 0.39 0.41 0.44 0.50 0.54 0.57 0.58 0.55 0.46 0.39 0.34 0.29 0.24 0.19 0.14 0.11 0.09 0.08 0.08 0.07 0.07 0.07 0.08 0.09 0.11 0.13 0.17 0.19 0.21 0.22 0.23 0.25 0.27 0.30
0.24 0.27 0.29 0.31 0.34 0.35 0.37 0.41 0.42 0.42 0.41 0.39 0.34 0.29 0.24 0.21 0.17 0.13 0.09 0.07 0.04 0.04 0.03 0.03 0.03 0.05 0.06 0.08 0.10 0.11 0.11 0.11 0.10 0.10 0.11 0.12 0.14 0.17
0.19 0.21 0.23 0.27 0.31 0.34 0.36 0.37 0.36 0.34 0.32 0.30 0.29 0.24 0.20 0.15 0.12 0.08 0.06 0.04 0.03 0.02 0.01 0.01 0.01 0.02 0.02 0.02 0.03 0.02 0.03 0.03 0.05 0.07 0.09 0.11 0.12 0.14
0.25 0.29 0.33 0.38 0.39 0.35 0.32 0.29 0.26 0.26 0.27 0.28 0.25 0.19 0.14 0.10 0.07 0.05 0.05 0.04 0.02 0.01 0.01 0.00 0.00 0.00 0.00 0.00 0.00 0.01 0.02 0.04 0.07 0.10 0.14 0.17 0.19 0.21
0.30 0.33 0.36 0.38 0.34 0.31 0.26 0.23 0.22 0.26 0.27 0.24 0.18 0.12 0.07 0.05 0.04 0.05 0.05 0.06 0.04 0.00 0.01 0.00 0.00 0.00 0.00 0.00 0.00 0.01 0.03 0.05 0.07 0.10 0.13 0.15 0.17 0.19
0.29 0.28 0.25 0.22 0.20 0.16 0.16 0.17 0.19 0.18 0.15 0.11 0.07 0.04 0.03 0.03 0.06 0.08 0.08 0.09 0.06 0.01 0.01 0.01 0.00 0.00 0.00 0.00 0.00 0.01 0.02 0.03 0.05 0.08 0.10 0.13 0.15 0.16
0.23 0.19 0.15 0.11 0.08 0.08 0.11 0.13 0.07 0.04 0.02 0.02 0.02 0.02 0.02 0.03 0.06 0.12 0.11 0.08 0.03 0.00 0.00 0.01 0.00 0.00 0.00 0.00 0.00 0.00 0.01 0.02 0.04 0.06 0.09 0.12 0.15 0.18
0.12 0.09 0.06 0.04 0.04 0.08 0.09 0.06 0.02 0.01 0.00 0.01 0.02 0.02 0.02 0.03 0.03 0.05 0.08 0.10 0.06 0.00 0.00 0.00 0.00 0.00 0.00 0.00 0.00 0.00 0.00 0.01 0.02 0.03 0.05 0.07 0.09 0.13
0.03 0.02 0.02 0.02 0.05 0.08 0.06 0.04 0.02 0.00 0.01 0.01 0.00 0.00 0.00 0.00 0.00 0.02 0.09 0.23 0.19 0.09 0.00 0.03 0.05 0.07 0.13 0.01 0.00 0.00 0.00 0.00 0.00 0.01 0.02 0.04 0.07 0.11
0.01 0.01 0.01 0.03 0.05 0.06 0.05 0.02 0.01 0.04 0.03 0.01 0.00 0.00 0.00 0.00 0.00 0.00 0.03 0.23 0.36 0.21 0.03 0.17 0.27 0.13 0.21 0.09 0.00 0.00 0.00 0.00 0.01 0.01 0.01 0.03 0.08 0.18
0.01 0.00 0.01 0.03 0.04 0.03 0.01 0.01 0.03 0.02 0.00 0.00 0.00 0.00 0.00 0.00 0.00 0.00 0.01 0.03 0.13 0.20 0.09 0.25 0.49 0.30 0.33 0.21 0.04 0.00 0.00 0.00 0.02 0.03 0.04 0.07 0.12 0.18
0.01 0.02 0.02 0.02 0.01 0.00 0.00 0.00 0.00 0.00 0.00 0.01 0.01 0.00 0.00 0.00 0.00 0.00 0.01 0.01 0.01 0.01 0.02 0.06 0.25 0.31 0.40 0.37 0.18 0.04 0.03 0.01 0.01 0.05 0.10 0.14 0.18 0.23
0.01 0.01 0.01 0.00 0.00 0.00 0.00 0.00 0.00 0.00 0.01 0.03 0.02 0.01 0.00 0.00 0.00 0.01 0.03 0.03 0.04 0.01 0.00 0.01 0.06 0.24 0.35 0.23 0.26 0.18 0.09 0.12 0.08 0.12 0.16 0.15 0.17 0.26
0.02 0.00 0.00 0.00 0.00 0.00 0.00 0.00 0.00 0.00 0.00 0.01 0.02 0.03 0.01 0.01 0.00 0.01 0.04 0.07 0.09 0.04 0.01 0.00 0.01 0.04 0.13 0.19 0.21 0.11 0.07 0.12 0.19 0.24 0.26 0.22 0.13 0.21
0.01 0.00 0.00 0.00 0.00 0.00 0.00 0.00 0.00 0.01 0.01 0.03 0.04 0.05 0.07 0.06 0.04 0.02 0.03 0.08 0.09 0.05 0.04 0.02 0.04 0.08 0.05 0.03 0.08 0.14 0.16 0.19 0.19 0.20 0.27 0.41 0.27 0.20
0.00 0.00 0.00 0.00 0.00 0.00 0.01 0.02 0.02 0.01 0.02 0.05 0.07 0.09 0.12 0.09 0.06 0.06 0.05 0.07 0.07 0.05 0.04 0.04 0.12 0.32 0.34 0.13 0.02 0.10 0.27 0.32 0.26 0.25 0.31 0.51 0.60 0.41
0.00 0.00 0.00 0.00 0.01 0.01 0.02 0.03 0.03 0.02 0.03 0.04 0.06 0.10 0.14 0.15 0.11 0.09 0.08 0.11 0.13 0.09 0.05 0.03 0.08 0.33 0.63 0.51 0.28 0.09 0.12 0.29 0.51 0.58 0.42 0.34 0.36 0.29
0.00 0.00 0.00 0.01 0.02 0.03 0.03 0.04 0.04 0.05 0.05 0.08 0.09 0.11 0.15 0.19 0.15 0.10 0.10 0.09 0.11 0.12 0.11 0.06 0.04 0.12 0.30 0.42 0.31 0.08 0.05 0.10 0.36 0.70 0.72 0.56 0.34 0.18
0.00 0.00 0.00 0.01 0.02 0.04 0.05 0.05 0.05 0.04 0.06 0.08 0.10 0.12 0.15 0.20 0.21 0.15 0.13 0.14 0.13 0.13 0.13 0.06 0.02 0.06 0.17 0.35 0.28 0.10 0.03 0.02 0.06 0.14 0.39 0.81 1.17 1.11
0.00 0.01 0.01 0.02 0.03 0.05 0.05 0.05 0.05 0.05 0.08 0.12 0.13 0.14 0.16 0.17 0.14 0.14 0.15 0.19 0.22 0.18 0.13 0.08 0.04 0.04 0.07 0.14 0.18 0.12 0.06 0.03 0.03 0.06 0.13 0.26 0.54 0.81